User: anonymous   Login
Location: Hamburg
(53.5500°N, 10.0000°E)
Time: 15:26:24
(UTC+01:00)
Language:

Iridium 10 - Orbit

View from above orbital plane
View from above orbital plane
View from above satellite
View from above satellite

Ground track
Ground track

The orbit data is extracted from the following two-line orbital elements,

1 24839U 97030D   14326.48733095  .00000476  00000-0  16304-3 0   973
2 24839 086.3971 022.0562 0002193 109.8940 019.1134 14.34210309912553
Epoch (UTC): 22 November 2014 11:41:45
Eccentricity: 0.0002193
inclination: 86.3971°
perigee height: 776 km
apogee height: 779 km
right ascension of ascending node: 22.0562°
argument of perigee: 109.8940°
revolutions per day: 14.34210309
mean anomaly at epoch: 19.1134°
orbit number at epoch: 91255

The dashed part of the orbit path shows where the satellite is in the earth's shadow,  

DLR